Time,TemperatureF,DewpointF,PressureIn,WindDirection,WindDirectionDegrees,WindSpeedMPH,WindSpeedGustMPH,Humidity,HourlyPrecipIn,Conditions,Clouds,dailyrainin,SoftwareType,DateUTC
2013-02-16 00:05:00,13.3,5.0,30.39,West,269,7.0,15.0,69,0.00,,,0.00,weatherlink.com 1.10,2013-02-16 06:05:00,
2013-02-16 00:20:00,13.2,5.0,30.39,West,264,0.0,8.0,69,0.00,,,0.00,weatherlink.com 1.10,2013-02-16 06:20:00,
2013-02-16 00:36:00,13.2,5.0,30.38,SW,230,0.0,11.0,70,0.00,,,0.00,weatherlink.com 1.10,2013-02-16 06:36:00,
2013-02-16 00:51:00,13.2,5.0,30.38,WSW,242,0.0,11.0,70,0.00,,,0.00,weatherlink.com 1.10,2013-02-16 06:51:00,
2013-02-16 01:06:00,12.9,5.0,30.37,WSW,248,5.0,7.0,70,0.00,,,0.00,weatherlink.com 1.10,2013-02-16 07:06:00,
2013-02-16 01:21:00,12.1,5.0,30.37,SW,235,3.0,11.0,72,0.00,,,0.00,weatherlink.com 1.10,2013-02-16 07:21:00,
2013-02-16 01:36:00,11.8,5.0,30.36,WSW,238,7.0,12.0,73,0.00,,,0.00,weatherlink.com 1.10,2013-02-16 07:36:00,
2013-02-16 01:51:00,11.6,5.0,30.36,West,263,2.0,10.0,73,0.00,,,0.00,weatherlink.com 1.10,2013-02-16 07:51:00,
2013-02-16 02:06:00,11.4,4.0,30.36,WSW,252,6.0,10.0,73,0.00,,,0.00,weatherlink.com 1.10,2013-02-16 08:06:00,
2013-02-16 02:21:00,11.3,5.0,30.36,West,266,7.0,8.0,74,0.00,,,0.00,weatherlink.com 1.10,2013-02-16 08:21:00,
2013-02-16 02:36:00,11.0,4.0,30.36,WSW,248,5.0,8.0,74,0.00,,,0.00,weatherlink.com 1.10,2013-02-16 08:36:00,
2013-02-16 02:51:00,10.7,4.0,30.36,WSW,258,10.0,10.0,75,0.00,,,0.00,weatherlink.com 1.10,2013-02-16 08:51:00,
2013-02-16 03:06:00,10.4,4.0,30.36,SW,234,8.0,10.0,75,0.00,,,0.00,weatherlink.com 1.10,2013-02-16 09:06:00,
2013-02-16 03:21:00,10.1,4.0,30.35,WSW,251,9.0,11.0,76,0.00,,,0.00,weatherlink.com 1.10,2013-02-16 09:21:00,
2013-02-16 03:36:00,9.8,4.0,30.35,WSW,250,4.0,8.0,76,0.00,,,0.00,weatherlink.com 1.10,2013-02-16 09:36:00,
2013-02-16 03:51:00,9.5,4.0,30.35,WSW,245,1.0,9.0,77,0.00,,,0.00,weatherlink.com 1.10,2013-02-16 09:51:00,
2013-02-16 04:06:00,9.2,3.0,30.35,WSW,246,7.0,7.0,77,0.00,,,0.00,weatherlink.com 1.10,2013-02-16 10:06:00,
2013-02-16 04:21:00,9.1,4.0,30.35,WSW,246,6.0,8.0,78,0.00,,,0.00,weatherlink.com 1.10,2013-02-16 10:21:00,
2013-02-16 04:36:00,9.0,3.0,30.35,WSW,249,5.0,8.0,78,0.00,,,0.00,weatherlink.com 1.10,2013-02-16 10:36:00,
2013-02-16 04:51:00,8.9,3.0,30.35,WSW,256,5.0,7.0,78,0.00,,,0.00,weatherlink.com 1.10,2013-02-16 10:51:00,
2013-02-16 05:06:00,8.6,3.0,30.34,WSW,256,0.0,6.0,78,0.00,,,0.00,weatherlink.com 1.10,2013-02-16 11:06:00,
2013-02-16 05:21:00,8.2,3.0,30.35,WSW,256,1.0,6.0,79,0.00,,,0.00,weatherlink.com 1.10,2013-02-16 11:21:00,
2013-02-16 05:36:00,8.0,3.0,30.34,WSW,256,0.0,1.0,79,0.00,,,0.00,weatherlink.com 1.10,2013-02-16 11:36:00,
2013-02-16 05:51:00,7.8,3.0,30.34,WSW,256,0.0,4.0,80,0.00,,,0.00,weatherlink.com 1.10,2013-02-16 11:51:00,
2013-02-16 06:06:00,7.8,3.0,30.35,WSW,256,1.0,4.0,80,0.00,,,0.00,weatherlink.com 1.10,2013-02-16 12:06:00,
2013-02-16 06:21:00,7.6,3.0,30.35,WSW,256,0.0,0.0,80,0.00,,,0.00,weatherlink.com 1.10,2013-02-16 12:21:00,
2013-02-16 06:36:00,7.3,3.0,30.35,WSW,256,0.0,6.0,81,0.00,,,0.00,weatherlink.com 1.10,2013-02-16 12:36:00,
2013-02-16 06:52:00,7.1,2.0,30.35,WSW,256,0.0,6.0,81,0.00,,,0.00,weatherlink.com 1.10,2013-02-16 12:52:00,
2013-02-16 07:07:00,6.9,3.0,30.36,WSW,256,2.0,6.0,82,0.00,,,0.00,weatherlink.com 1.10,2013-02-16 13:07:00,
2013-02-16 07:22:00,7.0,3.0,30.36,WSW,256,3.0,5.0,82,0.00,,,0.00,weatherlink.com 1.10,2013-02-16 13:22:00,
2013-02-16 07:37:00,7.6,3.0,30.37,WSW,256,1.0,2.0,82,0.00,,,0.00,weatherlink.com 1.10,2013-02-16 13:37:00,
2013-02-16 07:52:00,8.2,4.0,30.37,WSW,256,0.0,2.0,82,0.00,,,0.00,weatherlink.com 1.10,2013-02-16 13:52:00,
2013-02-16 08:07:00,9.2,4.0,30.37,WSW,256,0.0,0.0,80,0.00,,,0.00,weatherlink.com 1.10,2013-02-16 14:07:00,
2013-02-16 08:22:00,10.0,5.0,30.37,WSW,256,0.0,1.0,79,0.00,,,0.00,weatherlink.com 1.10,2013-02-16 14:22:00,
2013-02-16 08:37:00,11.0,5.0,30.37,WSW,256,0.0,1.0,78,0.00,,,0.00,weatherlink.com 1.10,2013-02-16 14:37:00,
2013-02-16 08:52:00,12.1,6.0,30.37,WSW,256,0.0,0.0,75,0.00,,,0.00,weatherlink.com 1.10,2013-02-16 14:52:00,
2013-02-16 09:07:00,12.7,6.0,30.37,WSW,256,2.0,4.0,75,0.00,,,0.00,weatherlink.com 1.10,2013-02-16 15:07:00,
2013-02-16 09:22:00,11.7,5.0,30.37,WNW,282,4.0,7.0,75,0.00,,,0.00,weatherlink.com 1.10,2013-02-16 15:22:00,
2013-02-16 09:37:00,12.8,6.0,30.37,WNW,296,5.0,6.0,75,0.00,,,0.00,weatherlink.com 1.10,2013-02-16 15:37:00,
2013-02-16 09:52:00,13.0,6.0,30.37,NW,317,6.0,8.0,72,0.00,,,0.00,weatherlink.com 1.10,2013-02-16 15:52:00,
2013-02-16 10:07:00,12.5,4.0,30.36,NW,319,0.0,7.0,70,0.00,,,0.00,weatherlink.com 1.10,2013-02-16 16:07:00,
2013-02-16 10:22:00,14.0,5.0,30.36,NW,321,5.0,7.0,68,0.00,,,0.00,weatherlink.com 1.10,2013-02-16 16:22:00,
2013-02-16 10:37:00,13.7,5.0,30.36,NNW,329,5.0,9.0,68,0.00,,,0.00,weatherlink.com 1.10,2013-02-16 16:37:00,
2013-02-16 10:52:00,13.5,5.0,30.36,NNW,331,4.0,8.0,68,0.00,,,0.00,weatherlink.com 1.10,2013-02-16 16:52:00,
2013-02-16 11:07:00,14.0,5.0,30.36,North,350,0.0,10.0,67,0.00,,,0.00,weatherlink.com 1.10,2013-02-16 17:07:00,
2013-02-16 11:22:00,14.3,4.0,30.35,West,279,7.0,12.0,65,0.00,,,0.00,weatherlink.com 1.10,2013-02-16 17:22:00,
2013-02-16 11:37:00,15.1,5.0,30.35,West,280,1.0,12.0,64,0.00,,,0.00,weatherlink.com 1.10,2013-02-16 17:37:00,
2013-02-16 11:52:00,15.0,5.0,30.34,WNW,297,0.0,10.0,64,0.00,,,0.00,weatherlink.com 1.10,2013-02-16 17:52:00,
2013-02-16 12:07:00,15.2,5.0,30.34,NW,309,3.0,8.0,64,0.00,,,0.00,weatherlink.com 1.10,2013-02-16 18:07:00,
2013-02-16 12:22:00,16.4,6.0,30.33,NW,308,5.0,8.0,63,0.00,,,0.00,weatherlink.com 1.10,2013-02-16 18:22:00,
2013-02-16 12:37:00,16.2,5.0,30.33,NW,317,4.0,9.0,61,0.00,,,0.00,weatherlink.com 1.10,2013-02-16 18:37:00,
2013-02-16 12:52:00,16.8,6.0,30.32,NW,307,0.0,11.0,62,0.00,,,0.00,weatherlink.com 1.10,2013-02-16 18:52:00,
2013-02-16 13:08:00,18.1,5.0,30.32,West,269,4.0,10.0,58,0.00,,,0.00,weatherlink.com 1.10,2013-02-16 19:08:00,
2013-02-16 13:23:00,16.8,5.0,30.31,NW,324,5.0,9.0,60,0.00,,,0.00,weatherlink.com 1.10,2013-02-16 19:23:00,
2013-02-16 13:38:00,17.3,6.0,30.31,West,279,2.0,10.0,61,0.00,,,0.00,weatherlink.com 1.10,2013-02-16 19:38:00,
2013-02-16 13:53:00,17.9,6.0,30.31,NW,306,0.0,9.0,60,0.00,,,0.00,weatherlink.com 1.10,2013-02-16 19:53:00,
2013-02-16 14:08:00,20.0,8.0,30.30,NW,306,0.0,4.0,59,0.00,,,0.00,weatherlink.com 1.10,2013-02-16 20:08:00,
2013-02-16 14:23:00,18.0,6.0,30.30,North,5,1.0,10.0,60,0.00,,,0.00,weatherlink.com 1.10,2013-02-16 20:23:00,
2013-02-16 14:38:00,19.5,6.0,30.30,NW,310,2.0,8.0,57,0.00,,,0.00,weatherlink.com 1.10,2013-02-16 20:38:00,
2013-02-16 14:53:00,18.7,6.0,30.30,NNW,341,5.0,10.0,57,0.00,,,0.00,weatherlink.com 1.10,2013-02-16 20:53:00,
2013-02-16 15:08:00,19.2,7.0,30.30,NNW,339,5.0,8.0,58,0.00,,,0.00,weatherlink.com 1.10,2013-02-16 21:08:00,
2013-02-16 15:23:00,19.9,7.0,30.30,NNW,337,5.0,7.0,58,0.00,,,0.00,weatherlink.com 1.10,2013-02-16 21:23:00,
2013-02-16 15:38:00,20.5,7.0,30.30,North,350,4.0,9.0,56,0.00,,,0.00,weatherlink.com 1.10,2013-02-16 21:38:00,
2013-02-16 15:53:00,18.8,6.0,30.30,NNW,346,8.0,9.0,58,0.00,,,0.00,weatherlink.com 1.10,2013-02-16 21:53:00,
2013-02-16 16:08:00,19.0,7.0,30.30,North,5,0.0,8.0,59,0.00,,,0.00,weatherlink.com 1.10,2013-02-16 22:08:00,
2013-02-16 16:23:00,19.3,7.0,30.30,NW,322,7.0,10.0,59,0.00,,,0.00,weatherlink.com 1.10,2013-02-16 22:23:00,
2013-02-16 16:38:00,19.0,7.0,30.31,NNW,348,8.0,10.0,60,0.00,,,0.00,weatherlink.com 1.10,2013-02-16 22:38:00,
2013-02-16 16:53:00,18.7,7.0,30.31,NW,326,2.0,8.0,60,0.00,,,0.00,weatherlink.com 1.10,2013-02-16 22:53:00,
2013-02-16 17:08:00,18.5,7.0,30.31,NNW,341,7.0,9.0,61,0.00,,,0.00,weatherlink.com 1.10,2013-02-16 23:08:00,
2013-02-16 17:23:00,18.1,7.0,30.31,NNW,335,2.0,9.0,61,0.00,,,0.00,weatherlink.com 1.10,2013-02-16 23:23:00,
2013-02-16 17:38:00,17.9,6.0,30.32,NNW,335,2.0,8.0,61,0.00,,,0.00,weatherlink.com 1.10,2013-02-16 23:38:00,
2013-02-16 17:53:00,17.9,6.0,30.32,NNW,335,0.0,5.0,61,0.00,,,0.00,weatherlink.com 1.10,2013-02-16 23:53:00,
2013-02-16 18:08:00,17.6,6.0,30.32,NNW,335,4.0,7.0,61,0.00,,,0.00,weatherlink.com 1.10,2013-02-17 00:08:00,
2013-02-16 18:23:00,17.4,6.0,30.33,NNW,335,3.0,7.0,62,0.00,,,0.00,weatherlink.com 1.10,2013-02-17 00:23:00,
2013-02-16 18:38:00,17.4,6.0,30.32,NNW,335,5.0,6.0,62,0.00,,,0.00,weatherlink.com 1.10,2013-02-17 00:38:00,
2013-02-16 18:53:00,17.2,7.0,30.32,NNW,335,0.0,0.0,63,0.00,,,0.00,weatherlink.com 1.10,2013-02-17 00:53:00,
2013-02-16 19:08:00,17.1,7.0,30.32,NNW,335,0.0,0.0,64,0.00,,,0.00,weatherlink.com 1.10,2013-02-17 01:08:00,
2013-02-16 19:23:00,17.0,6.0,30.32,NNW,335,0.0,0.0,63,0.00,,,0.00,weatherlink.com 1.10,2013-02-17 01:23:00,
2013-02-16 19:38:00,16.5,7.0,30.32,NNW,335,0.0,2.0,67,0.00,,,0.00,weatherlink.com 1.10,2013-02-17 01:38:00,
2013-02-16 19:53:00,16.2,7.0,30.32,NNW,335,0.0,1.0,67,0.00,,,0.00,weatherlink.com 1.10,2013-02-17 01:53:00,
2013-02-16 20:08:00,-999.0,-99.9,30.32,North,-999,-999.0,-999.0,-999,0.00,,,0.00,weatherlink.com 1.10,2013-02-17 02:08:00,
2013-02-16 20:24:00,15.2,7.0,30.32,NNW,335,0.0,0.0,70,0.00,,,0.00,weatherlink.com 1.10,2013-02-17 02:24:00,
2013-02-16 20:39:00,15.0,7.0,30.32,NNW,335,0.0,1.0,70,0.00,,,0.00,weatherlink.com 1.10,2013-02-17 02:39:00,
2013-02-16 20:54:00,15.5,5.0,30.32,North,360,3.0,7.0,64,0.00,,,0.00,weatherlink.com 1.10,2013-02-17 02:54:00,
2013-02-16 21:09:00,15.2,5.0,30.33,North,360,0.0,6.0,63,0.00,,,0.00,weatherlink.com 1.10,2013-02-17 03:09:00,
2013-02-16 21:24:00,15.0,4.0,30.33,North,360,4.0,6.0,62,0.00,,,0.00,weatherlink.com 1.10,2013-02-17 03:24:00,
2013-02-16 21:39:00,14.7,4.0,30.33,North,360,0.0,1.0,62,0.00,,,0.00,weatherlink.com 1.10,2013-02-17 03:39:00,
2013-02-16 21:54:00,14.7,4.0,30.33,North,360,0.0,4.0,62,0.00,,,0.00,weatherlink.com 1.10,2013-02-17 03:54:00,
2013-02-16 22:09:00,14.2,5.0,30.33,North,360,0.0,0.0,68,0.00,,,0.00,weatherlink.com 1.10,2013-02-17 04:09:00,
2013-02-16 22:24:00,13.2,6.0,30.33,North,360,0.0,0.0,72,0.00,,,0.00,weatherlink.com 1.10,2013-02-17 04:24:00,
2013-02-16 22:39:00,12.5,6.0,30.33,North,360,0.0,0.0,75,0.00,,,0.00,weatherlink.com 1.10,2013-02-17 04:39:00,
2013-02-16 22:54:00,12.5,7.0,30.33,North,360,0.0,0.0,78,0.00,,,0.00,weatherlink.com 1.10,2013-02-17 04:54:00,
2013-02-16 23:09:00,12.3,7.0,30.32,North,360,0.0,0.0,78,0.00,,,0.00,weatherlink.com 1.10,2013-02-17 05:09:00,
2013-02-16 23:24:00,11.6,6.0,30.32,North,360,0.0,0.0,78,0.00,,,0.00,weatherlink.com 1.10,2013-02-17 05:24:00,
2013-02-16 23:39:00,10.7,5.0,30.32,North,360,0.0,0.0,79,0.00,,,0.00,weatherlink.com 1.10,2013-02-17 05:39:00,
2013-02-16 23:54:00,10.2,5.0,30.32,North,360,0.0,0.0,80,0.00,,,0.00,weatherlink.com 1.10,2013-02-17 05:54:00,